Time,TemperatureF,DewpointF,PressureIn,WindDirection,WindDirectionDegrees,WindSpeedMPH,WindSpeedGustMPH,Humidity,HourlyPrecipIn,Conditions,Clouds,dailyrainin,SoftwareType,DateUTC
2013-01-15 00:02:00,2.0,-13.0,-100.00,SSW,203,26.0,35.0,49,0.00,,,-99.99,,2013-01-15 07:02:00,
2013-01-15 00:12:00,3.0,-14.0,-100.00,SSW,206,26.0,36.0,46,0.00,,,-99.99,,2013-01-15 07:12:00,
2013-01-15 00:22:00,2.0,-13.0,-100.00,SSW,203,26.0,36.0,48,0.00,,,-99.99,,2013-01-15 07:22:00,
2013-01-15 00:32:00,2.0,-13.0,-100.00,SSW,203,24.0,32.0,48,0.00,,,-99.99,,2013-01-15 07:32:00,
2013-01-15 00:42:00,2.0,-12.0,-100.00,SSW,200,25.0,36.0,52,0.00,,,-99.99,,2013-01-15 07:42:00,
2013-01-15 00:52:00,3.0,-12.0,-100.00,SSW,199,27.0,35.0,50,0.00,,,-99.99,,2013-01-15 07:52:00,
2013-01-15 01:02:00,2.0,-12.0,-100.00,SSW,200,26.0,34.0,50,0.00,,,-99.99,,2013-01-15 08:02:00,
2013-01-15 01:12:00,2.0,-12.0,-100.00,SSW,200,25.0,30.0,51,0.00,,,-99.99,,2013-01-15 08:12:00,
2013-01-15 01:22:00,2.0,-11.0,-100.00,SSW,199,27.0,37.0,52,0.00,,,-99.99,,2013-01-15 08:22:00,
2013-01-15 01:33:00,3.0,-11.0,-100.00,SSW,199,27.0,35.0,52,0.00,,,-99.99,,2013-01-15 08:33:00,
2013-01-15 01:42:00,2.0,-11.0,-100.00,SSW,199,25.0,34.0,53,0.00,,,-99.99,,2013-01-15 08:42:00,
2013-01-15 01:52:00,3.0,-10.0,-100.00,SSW,202,24.0,32.0,53,0.00,,,-99.99,,2013-01-15 08:52:00,
2013-01-15 02:02:00,3.0,-9.0,-100.00,SSW,202,23.0,32.0,56,0.00,,,-99.99,,2013-01-15 09:02:00,
2013-01-15 02:12:00,4.0,-9.0,-100.00,SSW,206,24.0,32.0,55,0.00,,,-99.99,,2013-01-15 09:12:00,
2013-01-15 02:22:00,4.0,-8.0,-100.00,SSW,208,24.0,34.0,56,0.00,,,-99.99,,2013-01-15 09:22:00,
2013-01-15 02:33:00,4.0,-7.0,-100.00,SSW,205,26.0,35.0,59,0.00,,,-99.99,,2013-01-15 09:33:00,
2013-01-15 02:42:00,5.0,-7.0,-100.00,SSW,206,28.0,37.0,59,0.00,,,-99.99,,2013-01-15 09:42:00,
2013-01-15 02:52:00,6.0,-5.0,-100.00,SSW,208,29.0,38.0,60,0.00,,,-99.99,,2013-01-15 09:52:00,
2013-01-15 03:02:00,6.0,-5.0,-100.00,SSW,212,28.0,40.0,60,0.00,,,-99.99,,2013-01-15 10:02:00,
2013-01-15 03:11:00,6.0,-5.0,-100.00,SSW,210,31.0,42.0,62,0.00,,,-99.99,,2013-01-15 10:11:00,
2013-01-15 03:22:00,6.0,-6.0,-100.00,SSW,212,26.0,35.0,59,0.00,,,-99.99,,2013-01-15 10:22:00,
2013-01-15 03:32:00,7.0,-4.0,-100.00,SSW,210,25.0,35.0,60,0.00,,,-99.99,,2013-01-15 10:32:00,
2013-01-15 03:42:00,7.0,-5.0,-100.00,SSW,212,24.0,35.0,58,0.00,,,-99.99,,2013-01-15 10:42:00,
2013-01-15 03:52:00,7.0,-4.0,-100.00,SW,216,21.0,29.0,59,0.00,,,-99.99,,2013-01-15 10:52:00,
2013-01-15 04:02:00,7.0,-5.0,-100.00,SSW,210,19.0,27.0,57,0.00,,,-99.99,,2013-01-15 11:02:00,
2013-01-15 04:12:00,8.0,-4.0,-100.00,SSW,209,19.0,27.0,58,0.00,,,-99.99,,2013-01-15 11:12:00,
2013-01-15 04:22:00,9.0,-4.0,-100.00,SSW,209,17.0,25.0,57,0.00,,,-99.99,,2013-01-15 11:22:00,
2013-01-15 04:33:00,8.0,-4.0,-100.00,SW,215,21.0,28.0,57,0.00,,,-99.99,,2013-01-15 11:33:00,
2013-01-15 04:42:00,8.0,-3.0,-100.00,SSW,213,21.0,28.0,58,0.00,,,-99.99,,2013-01-15 11:42:00,
2013-01-15 04:52:00,8.0,-3.0,-100.00,SSW,212,22.0,29.0,58,0.00,,,-99.99,,2013-01-15 11:52:00,
2013-01-15 05:03:00,9.0,-2.0,-100.00,SSW,210,24.0,34.0,60,0.00,,,-99.99,,2013-01-15 12:03:00,
2013-01-15 05:12:00,9.0,-2.0,-100.00,SSW,212,21.0,32.0,60,0.00,,,-99.99,,2013-01-15 12:12:00,
2013-01-15 05:22:00,8.0,-2.0,-100.00,SSW,210,26.0,34.0,62,0.00,,,-99.99,,2013-01-15 12:22:00,
2013-01-15 05:33:00,8.0,-3.0,-100.00,SSW,210,24.0,33.0,61,0.00,,,-99.99,,2013-01-15 12:33:00,
2013-01-15 05:42:00,8.0,-3.0,-100.00,SSW,213,25.0,34.0,62,0.00,,,-99.99,,2013-01-15 12:42:00,
2013-01-15 05:53:00,8.0,-2.0,-100.00,SSW,210,27.0,40.0,64,0.00,,,-99.99,,2013-01-15 12:53:00,
2013-01-15 06:03:00,9.0,-1.0,-100.00,SSW,212,26.0,31.0,62,0.00,,,-99.99,,2013-01-15 13:03:00,
2013-01-15 06:12:00,11.0,0.0,-100.00,SW,216,22.0,32.0,62,0.00,,,-99.99,,2013-01-15 13:12:00,
2013-01-15 06:23:00,11.0,0.0,-100.00,SW,219,19.0,27.0,60,0.00,,,-99.99,,2013-01-15 13:23:00,
2013-01-15 06:33:00,10.0,-1.0,-100.00,SSW,212,20.0,29.0,62,0.00,,,-99.99,,2013-01-15 13:33:00,
2013-01-15 06:43:00,10.0,-1.0,-100.00,SSW,213,23.0,34.0,62,0.00,,,-99.99,,2013-01-15 13:43:00,
2013-01-15 06:53:00,10.0,-1.0,-100.00,SSW,210,22.0,32.0,61,0.00,,,-99.99,,2013-01-15 13:53:00,
2013-01-15 07:02:00,9.0,-1.0,-100.00,SSW,209,19.0,29.0,63,0.00,,,-99.99,,2013-01-15 14:02:00,
2013-01-15 07:12:00,10.0,0.0,-100.00,SSW,208,21.0,32.0,63,0.00,,,-99.99,,2013-01-15 14:12:00,
2013-01-15 07:23:00,10.0,0.0,-100.00,SSW,212,22.0,30.0,64,0.00,,,-99.99,,2013-01-15 14:23:00,
2013-01-15 07:33:00,10.0,0.0,-100.00,SW,217,21.0,26.0,63,0.00,,,-99.99,,2013-01-15 14:33:00,
2013-01-15 07:43:00,11.0,1.0,-100.00,SW,215,24.0,34.0,63,0.00,,,-99.99,,2013-01-15 14:43:00,
2013-01-15 07:53:00,11.0,1.0,-100.00,SW,217,22.0,30.0,63,0.00,,,-99.99,,2013-01-15 14:53:00,
2013-01-15 08:03:00,11.0,1.0,-100.00,SW,215,23.0,32.0,64,0.00,,,-99.99,,2013-01-15 15:03:00,
2013-01-15 08:12:00,11.0,2.0,-100.00,SSW,213,23.0,32.0,64,0.00,,,-99.99,,2013-01-15 15:12:00,
2013-01-15 08:23:00,13.0,3.0,-100.00,SW,219,21.0,29.0,64,0.00,,,-99.99,,2013-01-15 15:23:00,
2013-01-15 08:33:00,14.0,4.0,-100.00,SW,220,21.0,33.0,63,0.00,,,-99.99,,2013-01-15 15:33:00,
2013-01-15 08:53:00,15.0,4.0,-100.00,SW,227,21.0,27.0,64,0.00,,,-99.99,,2013-01-15 15:53:00,
2013-01-15 09:03:00,15.0,4.0,-100.00,SW,227,22.0,30.0,64,0.00,,,-99.99,,2013-01-15 16:03:00,
2013-01-15 09:12:00,15.0,5.0,-100.00,SW,229,21.0,30.0,65,0.00,,,-99.99,,2013-01-15 16:12:00,
2013-01-15 09:22:00,15.0,4.0,-100.00,SW,223,21.0,28.0,63,0.00,,,-99.99,,2013-01-15 16:22:00,
2013-01-15 09:33:00,15.0,4.0,-100.00,SW,227,19.0,25.0,62,0.00,,,-99.99,,2013-01-15 16:33:00,
2013-01-15 09:42:00,15.0,5.0,-100.00,SW,233,18.0,29.0,62,0.00,,,-99.99,,2013-01-15 16:42:00,
2013-01-15 09:53:00,16.0,5.0,-100.00,SW,229,17.0,27.0,61,0.00,,,-99.99,,2013-01-15 16:53:00,
2013-01-15 10:03:00,16.0,4.0,-100.00,SW,215,17.0,24.0,60,0.00,,,-99.99,,2013-01-15 17:03:00,
2013-01-15 10:12:00,17.0,5.0,-100.00,SW,215,19.0,29.0,61,0.00,,,-99.99,,2013-01-15 17:12:00,
2013-01-15 10:22:00,17.0,6.0,-100.00,SW,223,22.0,32.0,59,0.00,,,-99.99,,2013-01-15 17:22:00,
2013-01-15 10:33:00,17.0,6.0,-100.00,SW,220,21.0,27.0,62,0.00,,,-99.99,,2013-01-15 17:33:00,
2013-01-15 10:42:00,18.0,7.0,-100.00,SW,215,22.0,29.0,63,0.00,,,-99.99,,2013-01-15 17:42:00,
2013-01-15 10:53:00,18.0,7.0,-100.00,SW,224,21.0,31.0,62,0.00,,,-99.99,,2013-01-15 17:53:00,
2013-01-15 11:03:00,19.0,8.0,-100.00,SW,230,20.0,30.0,64,0.00,,,-99.99,,2013-01-15 18:03:00,
2013-01-15 11:12:00,18.0,8.0,-100.00,SW,222,22.0,36.0,63,0.00,,,-99.99,,2013-01-15 18:12:00,
2013-01-15 11:23:00,19.0,9.0,-100.00,SW,227,21.0,28.0,64,0.00,,,-99.99,,2013-01-15 18:23:00,
2013-01-15 11:33:00,19.0,9.0,-100.00,SW,220,21.0,30.0,64,0.00,,,-99.99,,2013-01-15 18:33:00,
2013-01-15 11:42:00,19.0,9.0,-100.00,SW,227,24.0,32.0,63,0.00,,,-99.99,,2013-01-15 18:42:00,
2013-01-15 11:53:00,20.0,10.0,-100.00,SW,232,19.0,30.0,64,0.00,,,-99.99,,2013-01-15 18:53:00,
2013-01-15 12:03:00,20.0,10.0,-100.00,SW,227,21.0,31.0,64,0.00,,,-99.99,,2013-01-15 19:03:00,
2013-01-15 12:12:00,20.0,9.0,-100.00,SW,229,21.0,32.0,62,0.00,,,-99.99,,2013-01-15 19:12:00,
2013-01-15 12:22:00,21.0,10.0,-100.00,WSW,239,22.0,33.0,62,0.00,,,-99.99,,2013-01-15 19:22:00,
2013-01-15 12:33:00,20.0,9.0,-100.00,SW,234,22.0,30.0,62,0.00,,,-99.99,,2013-01-15 19:33:00,
2013-01-15 12:42:00,20.0,10.0,-100.00,SW,223,21.0,31.0,64,0.00,,,-99.99,,2013-01-15 19:42:00,
2013-01-15 12:52:00,21.0,11.0,-100.00,SW,224,19.0,28.0,65,0.00,,,-99.99,,2013-01-15 19:52:00,
2013-01-15 13:03:00,21.0,11.0,-100.00,SW,219,18.0,26.0,65,0.00,,,-99.99,,2013-01-15 20:03:00,
2013-01-15 13:12:00,20.0,10.0,-100.00,SW,224,20.0,26.0,63,0.00,,,-99.99,,2013-01-15 20:12:00,
2013-01-15 13:23:00,22.0,11.0,-100.00,SW,232,18.0,26.0,64,0.00,,,-99.99,,2013-01-15 20:23:00,
2013-01-15 13:33:00,21.0,12.0,-100.00,SW,224,19.0,27.0,67,0.00,,,-99.99,,2013-01-15 20:33:00,
2013-01-15 13:43:00,22.0,12.0,-100.00,SW,234,21.0,29.0,66,0.00,,,-99.99,,2013-01-15 20:43:00,
2013-01-15 13:52:00,22.0,12.0,-100.00,WSW,237,22.0,29.0,67,0.00,,,-99.99,,2013-01-15 20:52:00,
2013-01-15 14:03:00,22.0,14.0,-100.00,SW,233,21.0,29.0,69,0.00,,,-99.99,,2013-01-15 21:03:00,
2013-01-15 14:12:00,23.0,13.0,-100.00,WSW,240,23.0,34.0,67,0.00,,,-99.99,,2013-01-15 21:12:00,
2013-01-15 14:23:00,22.0,13.0,-100.00,WSW,240,24.0,36.0,67,0.00,,,-99.99,,2013-01-15 21:23:00,
2013-01-15 14:33:00,24.0,14.0,-100.00,WSW,239,26.0,37.0,65,0.00,,,-99.99,,2013-01-15 21:33:00,
2013-01-15 14:43:00,23.0,13.0,-100.00,WSW,240,24.0,34.0,66,0.00,,,-99.99,,2013-01-15 21:43:00,
2013-01-15 14:52:00,23.0,14.0,-100.00,SW,236,22.0,30.0,66,0.00,,,-99.99,,2013-01-15 21:52:00,
2013-01-15 15:03:00,23.0,13.0,-100.00,SW,229,23.0,32.0,66,0.00,,,-99.99,,2013-01-15 22:03:00,
2013-01-15 15:12:00,23.0,13.0,-100.00,SW,227,22.0,29.0,65,0.00,,,-99.99,,2013-01-15 22:12:00,
2013-01-15 15:23:00,23.0,13.0,-100.00,SW,233,24.0,31.0,65,0.00,,,-99.99,,2013-01-15 22:23:00,
2013-01-15 15:33:00,23.0,12.0,-100.00,SW,233,24.0,31.0,63,0.00,,,-99.99,,2013-01-15 22:33:00,
2013-01-15 15:43:00,23.0,13.0,-100.00,SW,232,25.0,31.0,64,0.00,,,-99.99,,2013-01-15 22:43:00,
2013-01-15 15:52:00,24.0,14.0,-100.00,SW,230,24.0,32.0,64,0.00,,,-99.99,,2013-01-15 22:52:00,
2013-01-15 16:02:00,25.0,14.0,-100.00,SW,223,25.0,34.0,63,0.00,,,-99.99,,2013-01-15 23:02:00,
2013-01-15 16:12:00,25.0,14.0,-100.00,SW,224,25.0,31.0,62,0.00,,,-99.99,,2013-01-15 23:12:00,
2013-01-15 16:22:00,25.0,13.0,-100.00,SW,234,23.0,32.0,61,0.00,,,-99.99,,2013-01-15 23:22:00,
2013-01-15 16:32:00,25.0,13.0,-100.00,SW,236,25.0,35.0,61,0.00,,,-99.99,,2013-01-15 23:32:00,
2013-01-15 16:42:00,24.0,13.0,-100.00,SW,232,24.0,35.0,62,0.00,,,-99.99,,2013-01-15 23:42:00,
2013-01-15 16:53:00,25.0,13.0,-100.00,SW,227,26.0,37.0,60,0.00,,,-99.99,,2013-01-15 23:53:00,
2013-01-15 17:02:00,25.0,14.0,-100.00,SW,224,24.0,35.0,63,0.00,,,-99.99,,2013-01-16 00:02:00,
2013-01-15 17:12:00,24.0,13.0,-100.00,SW,223,24.0,32.0,62,0.00,,,-99.99,,2013-01-16 00:12:00,
2013-01-15 17:22:00,25.0,14.0,-100.00,SW,227,21.0,32.0,62,0.00,,,-99.99,,2013-01-16 00:22:00,
2013-01-15 17:32:00,24.0,13.0,-100.00,SW,222,22.0,30.0,60,0.00,,,-99.99,,2013-01-16 00:32:00,
2013-01-15 17:43:00,25.0,13.0,-100.00,SW,226,21.0,29.0,61,0.00,,,-99.99,,2013-01-16 00:43:00,
2013-01-15 17:52:00,25.0,14.0,-100.00,SW,230,22.0,30.0,62,0.00,,,-99.99,,2013-01-16 00:52:00,
2013-01-15 18:02:00,25.0,14.0,-100.00,SW,233,22.0,32.0,63,0.00,,,-99.99,,2013-01-16 01:02:00,
2013-01-15 18:12:00,24.0,13.0,-100.00,SW,229,21.0,29.0,61,0.00,,,-99.99,,2013-01-16 01:12:00,
2013-01-15 18:22:00,23.0,14.0,-100.00,SW,223,20.0,26.0,67,0.00,,,-99.99,,2013-01-16 01:22:00,
2013-01-15 18:33:00,26.0,16.0,-100.00,SW,222,21.0,27.0,67,0.00,,,-99.99,,2013-01-16 01:33:00,
2013-01-15 18:42:00,24.0,15.0,-100.00,SW,223,19.0,27.0,67,0.00,,,-99.99,,2013-01-16 01:42:00,
2013-01-15 18:52:00,24.0,14.0,-100.00,SSW,209,19.0,28.0,65,0.00,,,-99.99,,2013-01-16 01:52:00,
2013-01-15 19:02:00,25.0,15.0,-100.00,SW,215,18.0,24.0,65,0.00,,,-99.99,,2013-01-16 02:02:00,
2013-01-15 19:12:00,25.0,15.0,-100.00,SW,222,16.0,26.0,65,0.00,,,-99.99,,2013-01-16 02:12:00,
2013-01-15 19:22:00,26.0,16.0,-100.00,SW,220,16.0,23.0,65,0.00,,,-99.99,,2013-01-16 02:22:00,
2013-01-15 19:32:00,26.0,16.0,-100.00,SW,223,17.0,24.0,64,0.00,,,-99.99,,2013-01-16 02:32:00,
2013-01-15 19:42:00,26.0,15.0,-100.00,SW,223,17.0,24.0,62,0.00,,,-99.99,,2013-01-16 02:42:00,
2013-01-15 19:52:00,26.0,14.0,-100.00,SW,215,20.0,27.0,61,0.00,,,-99.99,,2013-01-16 02:52:00,
2013-01-15 20:02:00,26.0,15.0,-100.00,SSW,210,19.0,26.0,62,0.00,,,-99.99,,2013-01-16 03:02:00,
2013-01-15 20:12:00,26.0,15.0,-100.00,SSW,213,20.0,26.0,64,0.00,,,-99.99,,2013-01-16 03:12:00,
2013-01-15 20:22:00,26.0,15.0,-100.00,SW,222,17.0,25.0,63,0.00,,,-99.99,,2013-01-16 03:22:00,
2013-01-15 20:32:00,26.0,16.0,-100.00,SW,227,16.0,26.0,65,0.00,,,-99.99,,2013-01-16 03:32:00,
2013-01-15 20:42:00,27.0,17.0,-100.00,SW,232,16.0,26.0,65,0.00,,,-99.99,,2013-01-16 03:42:00,
2013-01-15 20:52:00,27.0,17.0,-100.00,SW,232,16.0,26.0,67,0.00,,,-99.99,,2013-01-16 03:52:00,
2013-01-15 21:02:00,26.0,17.0,-100.00,SW,234,16.0,21.0,67,0.00,,,-99.99,,2013-01-16 04:02:00,
2013-01-15 21:12:00,27.0,18.0,-100.00,WSW,243,16.0,21.0,69,0.00,,,-99.99,,2013-01-16 04:12:00,
2013-01-15 21:22:00,26.0,17.0,-100.00,SW,226,14.0,20.0,70,0.00,,,-99.99,,2013-01-16 04:22:00,
2013-01-15 21:32:00,26.0,18.0,-100.00,SW,224,15.0,21.0,71,0.00,,,-99.99,,2013-01-16 04:32:00,
2013-01-15 21:42:00,26.0,18.0,-100.00,SW,226,17.0,24.0,71,0.00,,,-99.99,,2013-01-16 04:42:00,
2013-01-15 21:52:00,26.0,18.0,-100.00,SW,222,16.0,22.0,72,0.00,,,-99.99,,2013-01-16 04:52:00,
2013-01-15 22:03:00,25.0,17.0,-100.00,SSW,213,17.0,24.0,69,0.00,,,-99.99,,2013-01-16 05:03:00,
2013-01-15 22:12:00,25.0,17.0,-100.00,SSW,209,17.0,27.0,70,0.00,,,-99.99,,2013-01-16 05:12:00,
2013-01-15 22:22:00,25.0,17.0,-100.00,SSW,212,16.0,22.0,71,0.00,,,-99.99,,2013-01-16 05:22:00,
2013-01-15 22:32:00,27.0,19.0,-100.00,SW,226,12.0,21.0,72,0.00,,,-99.99,,2013-01-16 05:32:00,
2013-01-15 22:42:00,27.0,19.0,-100.00,SW,232,19.0,26.0,70,0.00,,,-99.99,,2013-01-16 05:42:00,
2013-01-15 22:53:00,27.0,19.0,-100.00,SW,224,16.0,23.0,71,0.00,,,-99.99,,2013-01-16 05:53:00,
2013-01-15 23:02:00,27.0,18.0,-100.00,SW,232,18.0,24.0,71,0.00,,,-99.99,,2013-01-16 06:02:00,
2013-01-15 23:12:00,26.0,18.0,-100.00,SW,224,21.0,31.0,72,0.00,,,-99.99,,2013-01-16 06:12:00,
2013-01-15 23:22:00,26.0,18.0,-100.00,SW,223,23.0,30.0,72,0.00,,,-99.99,,2013-01-16 06:22:00,
2013-01-15 23:32:00,26.0,18.0,-100.00,SW,216,23.0,31.0,72,0.00,,,-99.99,,2013-01-16 06:32:00,
2013-01-15 23:42:00,25.0,17.0,-100.00,SW,217,21.0,26.0,71,0.00,,,-99.99,,2013-01-16 06:42:00,
2013-01-15 23:52:00,25.0,17.0,-100.00,SSW,213,19.0,26.0,72,0.00,,,-99.99,,2013-01-16 06:52:00,